Starlink 2147

operational
NORAD ID: 47736 Int'l Des: 2021-017 Owner: SPXS Country: US Constellation: starlink
LEOCIRCULARSTARLINK_TYPE

Starlink 2147について

説明を読み込み中...

リアルタイム位置

3D地球を読み込み中...

次回通過

高度履歴

Altitude vs Time

uPlot chart will show altitude changes over time

軌道要素

1 47736U 21017Q 25303.07202780 .00001820 00000-0 14106-3 0 9993
2 47736 53.0548 67.9847 0000863 98.6096 261.4990 15.06399164258235
Epoch: Oct 30, 2025 • Age: 21 hours

現在のステータス

高度 555.9 km
速度 7.58 km/s
衛星直下点 -27.71°S, 27.45°E
打ち上げ日 Mar 4, 2021
運用期間 4.6 years
タイプ internet

技術仕様

分類 Payload
質量 260.00 kg
乾燥質量 248.00 kg
総質量 260.00 kg
長さ 0.20 m
直径 2.80 m
スパン 9.00 m
形状 Box + pan
製造者 SPXS
バスタイプ Starlink
フェーズステータス In Orbit
所有者/国 SPXS/US

大規模コンステレーション

Loading constellations...